Weather WX

World > North America > United States > Missouri

Crystal City, Missouri Regional Weather

Lat: 38.23N, Lon: 90.38W
Wx Zone: MOZ065
Warning FLW WEATHER ALERT - (More Info. Click Here) Warning
Feedback

Crystal City, MO Regional Weather

Expires:201906251500;;055842
ASUS43 KEAX 251410
RWREAX

WEATHER ROUNDUP FOR EASTERN KANSAS AND NORTHWEST MISSOURI
NATIONAL WEATHER SERVICE KANSAS CITY/PLEASANT HILL MO
900 AM CDT TUE JUN 25 2019


MOZ041-047>049-056>058-063>065-088>090-097-251500-
...EASTERN AND SOUTHERN MISSOURI...
  
CITY           SKY/WX    TMP DP  RH WIND       PRES   REMARKS
ST. LOUIS INTL MOSUNNY   76  61  59 SW10      30.02R                  
SPIRIT OF STL  SUNNY     74  61  63 SW8       30.01R                  
COLUMBIA       SUNNY     73  62  68 S12       30.00R                  
ROLLA          SUNNY     72  61  68 S9        30.05R                  
OSAGE BEACH    SUNNY     70  64  81 S3        30.02R                  
SPRINGFIELD    SUNNY     71  64  78 S12       30.03R                  
BRANSON        PTSUNNY   73  64  73 SE7       30.06R                  
JOPLIN         SUNNY     75  69  81 S10       30.01R                  
WEST PLAINS    SUNNY     73  61  65 S7        30.08R                  

$$


SKY/WX - Weather  TMP - Temperature  DP - Dew Point  RH - Relative Humidity
WIND - Wind Direction/Speed PRES - Barometric Pressure VSB - Visibility
WCI - Wind Chill Index E13G22 Wind - East Wind 13 mph/Gusts of 22 mph